Location: Aranbee
(34.0885°N, 118.2342°W)
Time: 05:28:03
(UTC+00:00)

Explorer 7 - Pass Details

Date: 05 August 2021
Orbit: 484 x 676 km, 50.3° (Epoch: 23 September)

Event Time Altitude Azimuth Distance (km) Brightness Sun altitude
Exits shadow 10:17:11 22° 59° (ENE) 1,086 8.9 -29.4°
Drops below altitude 10° 10:18:41 10° 54° (NE) 1,672 10.1 -29.2°
Sets 10:20:53 0° 52° (NE) 2,570 11.4 -28.9°
